Location: Heilwood
(40.6210°N, 78.9150°W)
Time: 14:35:38
(UTC-04:00)

BREEZE-M DEB (TANK) - Visible Passes

Search period start: 24 July 2016 00:00
Search period end: 03 August 2016 00:00
Orbit: 290 x 15897 km, 49.5° (Epoch: 24 July)

Date Brightness Start Highest point End Pass type
(mag) Time Alt. Az. Time Alt. Az. Time Alt. Az.
24 Jul 8.6 21:46:38 10° WNW 23:17:14 69° WSW 00:51:18 30° S visible
25 Jul 8.6 21:51:14 10° WNW 23:21:08 67° WSW 00:55:16 29° S visible
26 Jul 8.6 21:55:48 10° NW 23:24:54 65° WSW 00:59:19 27° SSW visible
27 Jul 8.6 22:00:22 10° NW 23:28:32 62° WSW 01:03:26 26° SSW visible
28 Jul 8.7 22:04:57 10° NW 23:32:03 60° WSW 01:07:38 25° SSW visible
29 Jul 8.7 22:09:31 10° NW 23:35:27 58° W 01:11:54 23° SSW visible
30 Jul 8.7 22:14:06 10° NW 23:38:45 56° W 01:16:15 21° SSW visible
31 Jul 8.7 22:18:42 10° NW 23:41:57 53° W 01:20:39 19° SSW visible
01 Aug 8.8 22:23:18 10° NW 23:45:06 51° W 01:25:07 17° SSW visible
